Home > Weather > Sherbrooke > Past weeks

Flag for Canada Weather for the Past 2 Weeks in Sherbrooke, Quebec, Canada

Now
-17 °F

Sunny.


Feels Like: -39 °F
Forecast: -19 / -7 °F
Wind: 13 mph from West

Location: Sherbrooke

Current Time: Feb 14, 2016 at 10:01:32 AM

Latest Report: Feb 14, 2016 at 9:00 AM


Visibility: 9 mi

Pressure: 30.45 "Hg

Humidity: 63%

Dew point: -26 °F

Location of SherbrookeLocation

Historic Weather in Sherbrooke — Graph

°F

Sherbrooke Temperature Yesterday

Maximum temperature yesterday: 14 °F (at 4:00 AM)
Minimum temperature yesterday: -15 °F (at 9:59 PM)
Average temperature yesterday: -2 °F

High & Low Weather Summary for the Past Weeks

 TemperatureHumidityPressure
High48 °F (Feb 1, 4:58 AM)100% (Jan 31, 8:00 AM)30.45 "Hg (Jan 31, 8:00 AM)
Low-20 °F (Feb 14, 6:00 AM)33% (Feb 7, 2:00 PM)29.42 "Hg (Feb 1, 6:00 AM)
Average20 °F78%29.93 "Hg
* Reported Jan 30 9:00 AM — Feb 14 9:00 AM, Sherbrooke, Weather by CustomWeather, © 2016

Note: Actual official high and low records may vary slightly from our data, if they occured in-between our weather recording intervals... More about our weather records

Advertising

Sherbrooke Weather History for the Previous 24 Hours

 ConditionsComfort  
Time TempWeatherWind HumidityBarometerVisibility
9:00 AM
Sun, Feb 14
-17 °FSunny.13 mph63%30.45 "Hg9 mi
8:00 AM-18 °FSunny.9 mph69%30.45 "Hg9 mi
7:00 AM-20 °FSunny.9 mph75%30.42 "Hg9 mi
6:45 AM-20 °FClear.10 mph75%30.41 "Hg9 mi
6:00 AM-20 °FLight snow. Clear.6 mph75%30.39 "Hg7 mi
5:00 AM-18 °FPartly cloudy.7 mph69%30.37 "Hg8 mi
4:53 AM-18 °FOvercast.8 mph69%30.36 "Hg9 mi
4:03 AM-18 °FPassing clouds.7 mph75%30.34 "Hg6 mi
3:02 AM-17 °FOvercast.7 mph69%30.31 "Hg3 mi
2:00 AM-17 °FLight snow. Overcast.10 mph69%30.29 "Hg2 mi
1:00 AM-17 °FLight snow. Mostly cloudy.12 mph76%30.26 "Hg2 mi
12:00 AM-15 °FLight snow. Overcast.12 mph69%30.24 "Hg2 mi
11:00 PM
Sat, Feb 13
-15 °FOvercast.12 mph69%30.24 "Hg3 mi
10:00 PM-15 °FOvercast.14 mph69%30.23 "Hg3 mi
9:59 PM-15 °FOvercast.14 mph69%30.23 "Hg3 mi
9:00 PM-13 °FLight snow. Overcast.18 mph63%30.22 "Hg2 mi
8:00 PM-13 °FLight snow. Overcast.12 mph69%30.21 "Hg2 mi
7:56 PM-13 °FLight snow. Overcast.14 mph69%30.21 "Hg2 mi
7:00 PM-13 °FMostly cloudy.14 mph69%30.20 "Hg5 mi
6:00 PM-13 °FLight snow. Overcast.12 mph69%30.18 "Hg4 mi
5:00 PM-13 °FOvercast.16 mph63%30.14 "Hg3 mi
4:00 PM-13 °FOvercast.14 mph63%30.11 "Hg4 mi
3:03 PM-11 °FOvercast.14 mph58%30.07 "Hg6 mi
2:00 PM-8 °FPartly sunny.16 mph58%30.02 "Hg9 mi
1:00 PM-4 °FOvercast.18 mph54%29.98 "Hg9 mi
12:00 PM-2 °FOvercast.17 mph65%29.95 "Hg9 mi
11:00 AM0 °FOvercast.16 mph65%29.94 "Hg6 mi
10:03 AM0 °FLight snow. Mostly cloudy.17 mph65%29.93 "Hg6 mi
10:00 AM0 °FPartly sunny.20 mph65%29.93 "Hg4 mi
Weather by CustomWeather, © 2016

See weather overviewHow to use our weather pages